Location: Bottenau
(48.5138°N, 8.0462°E)
Time: 04:49:24
(UTC+00:00)

CSL-04 Rocket - Pass Details

Date: 18 April 2021
Orbit: 806 x 860 km, 98.9° (Epoch: 09 May)

Event Time Altitude Azimuth Distance (km) Brightness Sun altitude
Rises 18:44:59 0° 169° (S) 3,322 6.5 -4.2°
Reaches altitude 10° 18:47:20 10° 172° (S) 2,390 5.8 -4.5°
Maximum altitude 18:52:36 71° 256° (WSW) 854 4.0 -5.3°
Drops below altitude 10° 18:57:54 10° 341° (NNW) 2,400 6.8 -6.1°
Sets 19:00:15 0° 344° (NNW) 3,337 7.5 -6.5°
